Observer details:
106 Crni Vrh.  Observer H. Mikuz.  0.6-m f/3.3 Deltagraph + CCD.
204 Schiaparelli Observatory.  Observers L. Buzzi, A. Aletti.  0.84-m f/3.5
    reflector + CCD.
215 Buchloe.  Observer W. Hasubick.  0.44-m f/4.6 reflector + CCD.
246 Klet Observatory-KLENOT.  Observers M. Tichy, J. Ticha, M. Janda, M.
    Honkova.  Measurer M. Tichy.  1.06-m f/2.7 reflector + 2048x2048
    CCD.
587 Sormano.  Observers A. Carcano, E. Colzani.  Measurer F. Manca.  0.5-m
    f/6.8 reflector + CCD.
673 Table Mountain Observatory, Wrightwood.  Observer J. Pittichova.  1.0-m
    f/15 reflector + CCD.
A77 Observatoire Chante-Perdrix, Dauban.  Observer F. Kugel.  0.4-m f/2.8
    reflector + CCD.
B42 Vitebsk.  Observer V. Nevski.  0.3-m f/5.0 reflector + CCD.
C47 Nonndorf.  Observer G. Dangl.  0.25-m f/4.8 reflector + CCD.
C95 SATINO Remote Observatory, Haute Provence.  Observer J. Jahn.  0.60-m
    f/3.2 Newtonian reflector + CCD.
G02 KYSUCE Observatory, Kysucke Nove Mesto.  Observer M. Urbanik.  0.40-m
    f/5.5 Corrected Dall-Kirkham + CCD.
G96 Mt. Lemmon Survey.  Observers J. B. Fazekas, G. J. Leonard, R. A.
    Kowalski.  Measurers E. J. Christensen, B. Gray, D. Rankin, F. C. Shelly,
    G. A. Farneth, J. B. Fazekas, D. C. Fuls, A. R. Gibbs, A. D. Grauer, H.
    Groeller, R. A. Kowalski, S. M. Larson, G. J. Leonard, R. L. Seaman, A.
    Serrano, K. W. Wierzchos.  1.5-m reflector + 10K CCD.
H06 iTelescope Observatory, Mayhill.  Observer H. Sato.  0.43-m f/6.8
    astrograph + CCD.
H36 Sandlot Observatory, Scranton.  Observer G. Hug.  0.56-m reflector + CCD.
I52 Steward Observatory, Mt. Lemmon Station.  Observer D. C. Fuls.  Measurers
    E. J. Christensen, G. A. Farneth, J. B. Fazekas, D. C. Fuls, A. R. Gibbs,
    A. D. Grauer, H. Groeller, R. A. Kowalski, S. M. Larson, G. J. Leonard, D.
    Rankin, R. L. Seaman, A. Serrano, F. C. Shelly, K. W. Wierzchos.
J57 Centro Astronomico Alto Turia, Valencia.  Observer A. Fornas.  Measurers
    A. Fornas, G. Fornas, E. Arce, V. Mas.  0.43-m f/6.8 reflector + CCD.
K51 Osservatorio del Celado, Castello Tesino.  Observers G. Favero, R.
    Furgoni.  Measurer R. Furgoni.  0.80-m f/4 reflector + CCD.
K61 Rokycany Observatory.  Observer M. Adamovsky.  0.51-m f/6.8 reflector +
    CCD.
K87 Dettelbach Vineyard Observatory.  Observer B. Haeusler.  0.3-m f/8.0
    Schmidt-Cassegrain + CCD.
M10 CPF Observatory, St Vallier de Thiey.  Observer C. Pin-ferrier.  0.25-m
    f/5 reflector + CCD.
Z99 Clixby Observatory, Cleethorpes.  Observer A. Mickleburgh.  0.36-m f/8
    Schmidt-Cassegrain + CCD.

Orbital elements:
    C/2022 D2 (Kowalski)                                                        
Epoch 2022 Apr. 11.0 TT = JDT 2459680.5                                         
T 2022 Mar. 27.57462 TT                                 Rudenko                 
q   1.5552175            (2000.0)            P               Q                  
z  +0.0025272      Peri.  177.79129     -0.64843045     -0.70625647             
 +/-0.0001551      Node   312.46717     +0.69241714     -0.39203557             
e   0.9960696      Incl.   22.65608     +0.31638022     -0.58949972             
>From 84 observations 2022 Jan. 21-Mar. 3, mean residual 0".5.                   
                                                                                
    C/2022 D2 (Kowalski)                                                        
Epoch 2022 Jan. 21.0 TT = JDT 2459600.5                                         
T 2022 Mar. 27.57587 TT                                 Rudenko                 
q   1.5552186            (2000.0)            P               Q                  
z  +0.0025538      Peri.  177.79204     -0.64843796     -0.70624860             
 +/-0.0001551      Node   312.46704     +0.69241333     -0.39204152             
e   0.9960283      Incl.   22.65623     +0.31637318     -0.58950518             
>From 84 observations 2022 Jan. 21-Mar. 3, mean residual 0".5.                   
                                                                                
Ephemeris:
Date    TT    R. A. (2000) Decl.     Delta      r    Elong.  Phase   m1    m2
2022 02 01    03 39 39.4 +41 47 33   1.1272  1.7243   109.2    32.7  19.6
...
2022 02 16    04 12 24.7 +37 13 03   1.1485  1.6470   100.6    36.1  19.5
...
2022 02 24    04 32 46.1 +34 44 27   1.1676  1.6145    96.6    37.5  19.4
...
2022 03 02    04 49 00.1 +32 51 16   1.1856  1.5944    93.8    38.3  19.4
2022 03 03    04 51 46.5 +32 32 15   1.1888  1.5915    93.3    38.4  19.4
2022 03 04    04 54 33.8 +32 13 10   1.1922  1.5886    92.9    38.6  19.4
...
2022 03 10    05 11 36.6 +30 17 35   1.2143  1.5739    90.4    39.1  19.4
...
2022 03 18    05 34 56.5 +27 40 19   1.2488  1.5608    87.4    39.6  19.4
...
2022 04 02    06 19 26.0 +22 36 24   1.3304  1.5570    82.6    39.5  19.5

M. P. C. Staff               (C) Copyright 2022 MPC           M.P.E.C. 2022-E47




More information about the Iaude mailing list